Flag for United Kingdom Weather past 2 weeks in Colchester, England, United Kingdom

Now
59 °F

Fog.


Feels Like: 58 °F
Forecast: 57 / 72 °F
Wind: 7 mph from Northeast

Location: Luton Airport

Current Time: Sep 19, 2014 at 6:47:53 AM

Latest Report: Sep 19, 2014 at 6:20 AM


Visibility: 1 mi

Pressure: 29.86 "Hg

Humidity: 100%

Dew point: 59 °F

Location of ColchesterLocation

Historic Weather in Colchester — Graph

°F

Colchester temperature yesterday

Maximum temperature yesterday: 75 °F (at 3:20 PM)
Minimum temperature yesterday: 57 °F (at 2:50 AM)
Average temperature yesterday: 64 °F

Past Weeks' High & Low Weather Summary

 TemperatureHumidityPressure
High75 °F (Sep 18, 3:20 PM)100% (Sep 4, 5:20 AM)30.33 "Hg (Sep 4, 5:20 AM)
Low45 °F (Sep 8, 6:20 AM)40% (Sep 8, 5:50 PM)29.80 "Hg (Sep 18, 2:20 PM)
Average60 °F83%30.08 "Hg
* Reported Sep 4 5:20 AM — Sep 19 5:50 AM, Colchester, Weather by CustomWeather, © 2014

Note: Actual official high and low records may vary slightly from our data, if they occured in-between our weather recording intervals... More about our weather records

Advertising

Colchester weather history for previous 24 hours

 ConditionsComfort  
Time TempWeatherWind HumidityBarometerVisibility
5:50 AM
Sep 19
59 °FFog.6 mph100%29.83 "Hg1 mi
5:20 AM59 °FHeavy rain. Passing clouds.8 mph100%29.83 "Hg1 mi
4:50 AM59 °FThunderstorms. Low clouds.5 mph100%29.83 "Hg1 mi
4:20 AM59 °FThunderstorms. Low clouds.10 mph100%29.83 "Hg0 mi
3:50 AM59 °FFog.10 mph100%29.83 "Hg0 mi
3:20 AM59 °FFog.No wind100%29.86 "Hg0 mi
2:50 AM59 °FFog.6 mph100%29.86 "Hg0 mi
2:20 AM59 °FFog.7 mph100%29.83 "Hg0 mi
1:50 AM59 °FFog.10 mph100%29.83 "Hg1 mi
1:20 AM59 °FFog.8 mph100%29.86 "Hg1 mi
12:50 AM59 °FFog.8 mph100%29.83 "Hg1 mi
12:20 AM61 °FFog.8 mph100%29.86 "Hg1 mi
11:50 PM
Sep 18
61 °FFog.6 mph94%29.86 "Hg1 mi
11:20 PM61 °FHaze.3 mph94%29.86 "Hg2 mi
10:50 PM63 °FClear.8 mph88%29.83 "Hg4 mi
10:20 PM61 °FClear.5 mph88%29.83 "Hg10 mi
9:50 PM63 °FClear.7 mph83%29.83 "Hg10 mi
9:20 PM64 °FPassing clouds.5 mph78%29.83 "HgN/A
8:50 PM64 °FClear.5 mph78%29.83 "Hg10 mi
8:20 PM66 °FClear.3 mph73%29.83 "Hg10 mi
7:50 PM66 °FSunny.2 mph73%29.83 "Hg10 mi
7:20 PM68 °FSunny.5 mph69%29.80 "Hg10 mi
6:50 PM70 °FPassing clouds.5 mph69%29.80 "HgN/A
6:20 PM72 °FMild.6 mph65%29.80 "HgN/A
5:50 PM73 °FPassing clouds.5 mph61%29.80 "HgN/A
5:20 PM75 °FSunny.8 mph61%29.80 "Hg10 mi
4:50 PM73 °FSunny.9 mph65%29.80 "Hg10 mi
4:20 PM75 °FPassing clouds.8 mph61%29.80 "HgN/A
3:50 PM75 °FPassing clouds.12 mph65%29.80 "HgN/A
3:20 PM75 °FPassing clouds.9 mph65%29.80 "HgN/A
2:50 PM73 °FScattered clouds.9 mph69%29.80 "Hg5 mi
2:20 PM72 °FScattered clouds.10 mph73%29.80 "Hg6 mi
1:50 PM72 °FClear.10 mph73%29.83 "Hg6 mi
1:20 PM70 °FScattered clouds.9 mph78%29.83 "Hg6 mi
12:50 PM68 °FClear.8 mph78%29.83 "Hg5 mi
12:20 PM68 °FClear.7 mph83%29.83 "Hg4 mi
11:50 AM66 °FClear.8 mph88%29.83 "Hg4 mi
11:20 AM64 °FMild.10 mph94%29.83 "Hg3 mi
10:50 AM61 °FFog.9 mph100%29.83 "Hg2 mi
10:20 AM61 °FFog.8 mph100%29.86 "Hg2 mi
9:50 AM59 °FFog.7 mph100%29.83 "Hg1 mi
9:20 AM59 °FFog.8 mph100%29.83 "Hg1 mi
8:50 AM59 °FFog.8 mph100%29.83 "Hg0 mi
8:20 AM59 °FFog.9 mph100%29.83 "Hg0 mi
7:50 AM57 °FFog.9 mph100%29.83 "Hg0 mi
7:20 AM57 °FDrizzle. Low clouds.9 mph100%29.83 "Hg0 mi
6:50 AM57 °FFog.10 mph100%29.83 "Hg0 mi
6:20 AM57 °FFog.10 mph100%29.83 "Hg0 mi
Weather by CustomWeather, © 2014

See weather overviewHow to use our weather pages